Date String (YYYY-MM-DD hh:mm:ss) UTC,Instrument flags,absolute air pressure of the measurement (hPa),sample flow rate (lpm),inlet stack bypass flow (lpm),air temperature of the measurement (°C),ambient temperature measured by the external sensor (°C),aerosol sample conditioner tube jacket temperature (°C),OPC LED temperature (°C),internal box temperature (°C),relative humidity of the measurement (%),span deviation,mass concentration of particles derived from Lorenz-Mie calculation of OPC scattering (μg/m³),mass concentration of particles derived from Lorenz-Mie calculation of OPC scattering (μg/m³),mass concentration of particles derived from Lorenz-Mie calculation of OPC scattering (μg/m³)
DateTimeUTC,F1_M11,P_M11,Q1_M11,Q2_M11,T1_M11,T2_M11,T3_M11,T4_M11,T5_M11,U1_M11,ZSPAN_M11,X0_M11,X2_M11,X1_M11
2023-10-19 09:00:00,SystemResetWarning,0833.3,5.00,000.00,029.1,027.7,000.0,037.6,030.8,13.5,0000.0,0011.19,0003.85,0002.41
2023-10-19 09:01:00,SystemResetWarning,0833.2,5.00,000.00,029.1,027.7,000.0,037.6,030.8,13.5,0000.0,0011.46,0003.82,0002.38
2023-10-19 09:02:00,SystemResetWarning,0833.2,5.00,000.00,029.1,027.7,000.0,037.6,030.7,13.5,0000.0,0011.70,0003.78,0002.35
2023-10-19 09:03:00,SystemResetWarning,0833.2,5.00,000.00,029.1,027.7,000.0,037.6,030.7,13.5,0000.0,0011.08,0003.75,0002.33
2023-10-19 09:04:00,SystemResetWarning,0833.2,5.00,000.00,029.1,027.7,000.0,037.6,030.7,13.5,0000.0,0010.70,0003.75,0002.32
2023-10-19 09:05:00,SystemResetWarning,0833.2,5.00,000.00,029.1,027.6,000.0,037.6,030.7,13.5,0000.0,0010.90,0003.70,0002.33
2023-10-19 09:06:00,SystemResetWarning,0833.2,5.00,000.00,029.1,027.6,000.0,037.6,030.7,13.5,0000.0,0010.52,0003.67,0002.32
2023-10-19 09:07:00,SystemResetWarning,0833.2,5.00,000.00,029.1,027.6,000.0,037.6,030.7,13.5,0000.0,0010.56,0003.70,0002.30
2023-10-19 09:08:00,SystemResetWarning,0833.2,4.99,000.00,029.1,027.6,000.0,037.6,030.7,13.5,0000.0,0010.63,0003.71,0002.27
2023-10-19 09:09:00,SystemResetWarning,0833.2,5.00,000.00,029.1,027.7,000.0,037.6,030.8,13.5,0000.0,0010.89,0003.70,0002.23
2023-10-19 09:10:00,SystemResetWarning,0833.2,4.99,000.00,029.1,027.6,000.0,037.6,030.8,13.5,0000.0,0011.15,0003.66,0002.21
2023-10-19 09:11:00,SystemResetWarning,0833.2,4.99,000.00,029.1,027.6,000.0,037.6,030.8,13.5,0000.0,0010.98,0003.64,0002.19
2023-10-19 09:12:00,SystemResetWarning,0833.2,5.00,000.00,029.1,027.6,000.0,037.6,030.7,13.5,0000.0,0011.23,0003.64,0002.18
2023-10-19 09:13:00,SystemResetWarning,0833.2,5.01,000.00,029.1,027.6,000.0,037.6,030.7,13.5,0000.0,0010.94,0003.63,0002.19
2023-10-19 09:14:00,SystemResetWarning,0833.2,5.00,000.00,029.1,027.6,000.0,037.6,030.8,13.5,0000.0,0011.08,0003.68,0002.20
2023-10-19 09:15:00,SystemResetWarning,0833.1,5.01,000.00,029.1,027.6,000.0,037.6,030.8,13.5,0000.0,0012.05,0003.71,0002.21
2023-10-19 09:16:00,SystemResetWarning,0833.1,5.00,000.00,029.1,027.6,000.0,037.6,030.8,13.5,0000.0,0012.13,0003.72,0002.18
2023-10-19 09:17:00,SystemResetWarning,0833.2,5.01,000.00,029.1,027.6,000.0,037.6,030.8,13.4,0000.0,0012.75,0003.70,0002.16
2023-10-19 09:18:00,SystemResetWarning,0833.2,5.00,000.00,029.1,027.7,000.0,037.6,030.8,13.5,0000.0,0013.46,0003.67,0002.14
2023-10-19 09:19:00,SystemResetWarning,0833.2,4.99,000.00,029.1,027.7,000.0,037.6,030.8,13.5,0000.0,0013.60,0003.67,0002.13
2023-10-19 09:20:00,SystemResetWarning,0833.2,5.00,000.00,029.1,027.7,000.0,037.6,030.8,13.5,0000.0,0013.55,0003.66,0002.12
2023-10-19 09:21:00,SystemResetWarning,0833.2,4.99,000.00,029.2,027.7,000.0,037.6,030.8,13.5,0000.0,0013.23,0003.70,0002.11
2023-10-19 09:22:00,SystemResetWarning,0833.2,5.01,000.00,029.2,027.7,000.0,037.6,030.8,13.5,0000.0,0014.20,0003.69,0002.10
2023-10-19 09:23:00,SystemResetWarning,0833.2,5.01,000.00,029.2,027.7,000.0,037.6,030.8,13.5,0000.0,0014.93,0003.64,0002.10
2023-10-19 09:24:00,SystemResetWarning,0833.2,5.00,000.00,029.2,027.7,000.0,037.6,030.8,13.5,0000.0,0015.03,0003.65,0002.09
2023-10-19 09:25:00,SystemResetWarning,0833.2,4.98,000.00,029.2,027.7,000.0,037.6,030.8,13.5,0000.0,0014.87,0003.58,0002.07
2023-10-19 09:26:00,SystemResetWarning,0833.2,5.00,000.00,029.2,027.7,000.0,037.6,030.8,13.5,0000.0,0014.12,0003.52,0002.07
2023-10-19 09:27:00,SystemResetWarning,0833.2,5.01,000.00,029.2,027.7,000.0,037.6,030.8,13.5,0000.0,0013.66,0003.45,0002.06
2023-10-19 09:28:00,SystemResetWarning,0833.2,5.01,000.00,029.2,027.7,000.0,037.6,030.8,13.5,0000.0,0013.64,0003.45,0002.07
2023-10-19 09:29:00,SystemResetWarning,0833.2,5.00,000.00,029.2,027.7,000.0,037.6,030.8,13.5,0000.0,0012.46,0003.41,0002.07
2023-10-19 09:30:00,SystemResetWarning,0833.2,4.99,000.00,029.2,027.7,000.0,037.6,030.8,13.5,0000.0,0012.26,0003.35,0002.06
2023-10-19 09:31:00,SystemResetWarning,0833.2,4.99,000.00,029.2,027.7,000.0,037.6,030.8,13.5,0000.0,0012.11,0003.32,0002.05
2023-10-19 09:32:00,SystemResetWarning,0833.2,5.00,000.00,029.2,027.7,000.0,037.6,030.8,13.5,0000.0,0012.22,0003.25,0002.03
2023-10-19 09:33:00,SystemResetWarning,0833.2,5.02,000.00,029.2,027.7,000.0,037.6,030.8,13.5,0000.0,0011.63,0003.21,0002.03
2023-10-19 09:34:00,SystemResetWarning,0833.2,4.99,000.00,029.2,027.7,000.0,037.6,030.8,13.5,0000.0,0010.76,0003.24,0002.04
2023-10-19 09:35:00,SystemResetWarning,0833.2,4.99,000.00,029.2,027.7,000.0,037.6,030.8,13.5,0000.0,0010.55,0003.23,0002.01
2023-10-19 09:36:00,SystemResetWarning,0833.2,5.01,000.00,029.2,027.7,000.0,037.6,030.8,13.5,0000.0,0010.32,0003.21,0002.00
2023-10-19 09:37:00,SystemResetWarning,0833.2,5.01,000.00,029.2,027.7,000.0,037.6,030.8,13.4,0000.0,0010.20,0003.24,0001.98
2023-10-19 09:38:00,SystemResetWarning,0833.2,5.00,000.00,029.2,027.7,000.0,037.6,030.8,13.4,0000.0,0010.04,0003.24,0001.96
2023-10-19 09:39:00,SystemResetWarning,0833.2,5.00,000.00,029.2,027.7,000.0,037.6,030.8,13.4,0000.0,0009.85,0003.24,0001.94
2023-10-19 09:40:00,SystemResetWarning,0833.2,5.00,000.00,029.2,027.7,000.0,037.7,030.8,13.4,0000.0,0009.81,0003.22,0001.92
2023-10-19 09:41:00,SystemResetWarning,0833.2,5.00,000.00,029.2,027.8,000.0,037.6,030.8,13.4,0000.0,0009.97,0003.22,0001.92
2023-10-19 09:42:00,SystemResetWarning,0833.2,5.00,000.00,029.2,027.8,000.0,037.6,030.8,13.5,0000.0,0010.14,0003.22,0001.92
2023-10-19 09:43:00,SystemResetWarning,0833.2,5.00,000.00,029.2,027.8,000.0,037.6,030.8,13.5,0000.0,0010.46,0003.21,0001.90
2023-10-19 09:44:00,SystemResetWarning,0833.2,5.00,000.00,029.2,027.8,000.0,037.6,030.8,13.5,0000.0,0010.70,0003.20,0001.90
2023-10-19 09:45:00,SystemResetWarning,0833.2,5.00,000.00,029.2,027.8,000.0,037.6,030.8,13.5,0000.0,0010.37,0003.20,0001.90
2023-10-19 09:46:00,SystemResetWarning,0833.2,5.00,000.00,029.2,027.8,000.0,037.6,030.9,13.5,0000.0,0009.79,0003.17,0001.89
2023-10-19 09:47:00,SystemResetWarning,0833.3,4.99,000.00,029.2,027.8,000.0,037.6,030.8,13.5,0000.0,0009.87,0003.16,0001.88
2023-10-19 09:48:00,SystemResetWarning,0833.3,4.99,000.00,029.2,027.8,000.0,037.6,030.8,13.5,0000.0,0009.94,0003.17,0001.87
2023-10-19 09:49:00,SystemResetWarning,0833.3,4.99,000.00,029.2,027.8,000.0,037.7,030.9,13.5,0000.0,0010.10,0003.13,0001.85
2023-10-19 09:50:00,SystemResetWarning,0833.3,5.00,000.00,029.2,027.8,000.0,037.7,030.9,13.5,0000.0,0010.25,0003.09,0001.83
2023-10-19 09:51:00,SystemResetWarning,0833.2,5.01,000.00,029.3,027.8,000.0,037.7,030.9,13.5,0000.0,0010.49,0003.07,0001.82
2023-10-19 09:52:00,SystemResetWarning,0833.2,5.00,000.00,029.3,027.8,000.0,037.7,030.9,13.5,0000.0,0011.14,0003.08,0001.82
2023-10-19 09:53:00,SystemResetWarning,0833.3,4.99,000.00,029.3,027.8,000.0,037.7,030.9,13.5,0000.0,0011.33,0003.06,0001.80
2023-10-19 09:54:00,SystemResetWarning,0833.2,4.98,000.00,029.3,027.8,000.0,037.7,030.9,13.4,0000.0,0010.90,0003.02,0001.80
2023-10-19 09:55:00,SystemResetWarning,0833.3,5.01,000.00,029.3,027.8,000.0,037.7,030.9,13.4,0000.0,0010.24,0003.02,0001.81
2023-10-19 09:56:00,SystemResetWarning,0833.3,5.01,000.00,029.3,027.8,000.0,037.7,030.9,13.4,0000.0,0010.60,0003.05,0001.79
2023-10-19 09:57:00,SystemResetWarning,0833.3,5.00,000.00,029.3,027.8,000.0,037.7,030.9,13.4,0000.0,0011.41,0003.05,0001.78
2023-10-19 09:58:00,SystemResetWarning,0833.3,4.98,000.00,029.3,027.8,000.0,037.7,030.9,13.5,0000.0,0011.52,0003.00,0001.78
2023-10-19 09:59:00,SystemResetWarning,0833.3,5.01,000.00,029.3,027.8,000.0,037.7,030.9,13.5,0000.0,0012.01,0002.96,0001.78
